TimeEST,TemperatureF,Dew PointF,Humidity,Sea Level PressureIn,VisibilityMPH,Wind Direction,Wind SpeedMPH,Gust SpeedMPH,PrecipitationIn,Events,Conditions,WindDirDegrees,DateUTC
12:17 AM,24.8,21.2,86,29.69,1.8,ENE,8.1,-,0.01,Snow,Light Snow,70,2012-03-01 05:17:00
12:23 AM,24.8,21.2,86,29.69,3.0,ENE,8.1,-,0.01,Snow,Light Snow,70,2012-03-01 05:23:00
12:51 AM,26.1,21.9,84,29.74,6.0,ENE,6.9,-,0.01,Snow,Light Snow,70,2012-03-01 05:51:00
1:51 AM,28.0,21.9,78,29.71,10.0,ENE,5.8,-,0.00,,Overcast,70,2012-03-01 06:51:00
2:51 AM,30.9,21.9,69,29.68,10.0,SE,9.2,18.4,N/A,,Overcast,130,2012-03-01 07:51:00
3:51 AM,30.9,23.0,72,29.66,10.0,SE,9.2,-,N/A,,Overcast,140,2012-03-01 08:51:00
4:51 AM,32.0,21.9,66,29.64,10.0,SE,6.9,-,N/A,,Overcast,130,2012-03-01 09:51:00
5:51 AM,32.0,23.0,69,29.67,9.0,SE,5.8,-,0.00,Snow,Light Snow,130,2012-03-01 10:51:00
6:05 AM,30.2,23.0,75,29.60,3.0,SE,5.8,-,0.00,Snow,Light Snow,130,2012-03-01 11:05:00
6:19 AM,30.2,23.0,75,29.60,2.5,ESE,6.9,-,0.00,Snow,Light Snow,120,2012-03-01 11:19:00
6:32 AM,30.2,24.8,80,29.60,3.0,SE,4.6,-,0.00,Snow,Light Snow,130,2012-03-01 11:32:00
6:51 AM,30.0,24.1,79,29.66,2.0,SE,5.8,-,0.00,Snow,Light Snow,130,2012-03-01 11:51:00
6:59 AM,30.2,24.8,80,29.60,1.8,Variable,4.6,-,0.00,Snow,Light Snow,0,2012-03-01 11:59:00
7:51 AM,30.9,24.1,76,29.67,3.0,Variable,6.9,-,0.00,Snow,Light Snow,0,2012-03-01 12:51:00
8:13 AM,30.2,23.0,75,29.60,2.5,SSE,10.4,-,0.00,Snow,Light Snow,150,2012-03-01 13:13:00
8:21 AM,30.2,23.0,75,29.60,3.0,SE,9.2,-,0.00,Snow,Light Snow,140,2012-03-01 13:21:00
8:39 AM,30.2,23.0,75,29.60,2.0,SE,10.4,17.3,0.00,Snow,Light Snow,130,2012-03-01 13:39:00
8:51 AM,30.9,24.1,76,29.66,3.0,ESE,5.8,-,0.00,Snow,Light Snow,120,2012-03-01 13:51:00
9:51 AM,32.0,23.0,69,29.67,5.0,SSE,8.1,-,0.00,Snow,Light Snow,160,2012-03-01 14:51:00
10:03 AM,32.0,23.0,69,29.61,4.0,SE,6.9,-,0.00,Snow,Light Snow,140,2012-03-01 15:03:00
10:51 AM,30.0,25.0,82,29.69,1.8,Variable,4.6,-,0.00,Snow,Light Snow,0,2012-03-01 15:51:00
11:27 AM,30.2,24.8,80,29.64,0.8,SSE,8.1,-,0.01,Snow,Light Snow,150,2012-03-01 16:27:00
11:35 AM,28.4,24.8,86,29.64,0.5,SE,5.8,-,0.01,Fog-Snow,Snow,130,2012-03-01 16:35:00
11:51 AM,28.9,26.1,89,29.70,0.2,SSE,5.8,-,0.01,Fog-Snow,Snow,150,2012-03-01 16:51:00
12:20 PM,28.4,26.6,93,29.64,0.5,SSE,4.6,-,0.02,Fog-Snow,Snow,150,2012-03-01 17:20:00
12:41 PM,28.4,26.6,93,29.64,0.5,SSE,9.2,-,0.03,Fog-Snow,Snow,150,2012-03-01 17:41:00
12:51 PM,28.9,26.1,89,29.70,0.5,SSE,9.2,-,0.03,Fog-Snow,Snow,150,2012-03-01 17:51:00
1:28 PM,28.4,26.6,93,29.65,0.8,SE,9.2,-,0.01,Snow,Light Snow,140,2012-03-01 18:28:00
1:36 PM,30.2,26.6,86,29.65,1.2,SSE,11.5,-,0.01,Snow,Light Snow,150,2012-03-01 18:36:00
1:51 PM,30.0,26.1,85,29.71,1.2,SE,5.8,-,0.01,Snow,Light Snow,130,2012-03-01 18:51:00
2:26 PM,30.2,26.6,86,29.66,0.8,SSE,5.8,-,0.00,Snow,Light Snow,150,2012-03-01 19:26:00
2:51 PM,30.0,25.0,82,29.73,1.2,SE,9.2,16.1,0.00,Snow,Light Snow,140,2012-03-01 19:51:00
2:58 PM,30.2,24.8,80,29.67,2.0,SE,9.2,-,0.00,Snow,Light Snow,140,2012-03-01 19:58:00
3:23 PM,28.4,24.8,86,29.68,1.5,SSE,8.1,-,0.00,Snow,Light Snow,150,2012-03-01 20:23:00
3:31 PM,28.4,24.8,86,29.69,1.2,SE,10.4,-,0.00,Snow,Light Snow,140,2012-03-01 20:31:00
3:41 PM,28.4,24.8,86,29.69,0.5,SE,6.9,-,0.00,Fog-Snow,Snow,140,2012-03-01 20:41:00
3:51 PM,28.9,26.1,89,29.75,0.5,SE,8.1,-,0.00,Fog-Snow,Light Snow,140,2012-03-01 20:51:00
4:08 PM,28.4,26.6,93,29.70,1.0,SSE,5.8,-,0.00,Snow,Light Snow,150,2012-03-01 21:08:00
4:16 PM,28.4,24.8,86,29.70,0.8,Variable,6.9,-,0.00,Snow,Light Snow,0,2012-03-01 21:16:00
4:27 PM,28.4,24.8,86,29.71,1.2,SSE,6.9,-,0.00,Snow,Light Snow,150,2012-03-01 21:27:00
4:51 PM,28.0,25.0,88,29.78,1.0,SSE,5.8,-,0.01,Snow,Light Snow,160,2012-03-01 21:51:00
5:43 PM,28.4,24.8,86,29.75,2.0,South,6.9,-,0.00,Snow,Light Snow,170,2012-03-01 22:43:00
5:51 PM,28.0,25.0,88,29.81,2.0,South,4.6,-,0.00,Snow,Light Snow,170,2012-03-01 22:51:00
6:07 PM,28.4,24.8,86,29.75,3.0,South,4.6,-,0.00,Snow,Light Snow,170,2012-03-01 23:07:00
6:51 PM,27.0,24.1,89,29.83,3.0,SSE,3.5,-,0.00,Snow,Light Snow,150,2012-03-01 23:51:00
7:09 PM,26.6,24.8,93,29.78,3.0,SSE,3.5,-,0.00,Snow,Light Snow,150,2012-03-02 00:09:00
7:51 PM,28.0,24.1,85,29.84,10.0,South,3.5,-,0.00,,Overcast,170,2012-03-02 00:51:00
8:51 PM,28.0,23.0,81,29.84,10.0,Calm,Calm,-,N/A,,Overcast,0,2012-03-02 01:51:00
9:51 PM,27.0,24.1,89,29.86,10.0,Calm,Calm,-,N/A,,Overcast,0,2012-03-02 02:51:00
10:51 PM,27.0,24.1,89,29.87,10.0,Calm,Calm,-,N/A,,Overcast,0,2012-03-02 03:51:00
11:51 PM,27.0,24.1,89,29.89,10.0,Calm,Calm,-,N/A,,Overcast,0,2012-03-02 04:51:00